Location: Grovedale
(55.0253°N, 118.8649°W)
Time: 16:38:17
(UTC+00:00)

ISS - Visible Passes

Search period start: 02 December 2021 00:00
Search period end: 12 December 2021 00:00
Orbit: 417 x 423 km, 51.6° (Epoch: 02 December)

Date Brightness Start Highest point End Pass type
(mag) Time Alt. Az. Time Alt. Az. Time Alt. Az.
02 Dec -2.8 01:27:22 10° W 01:30:37 42° S 01:32:21 23° SE visible
02 Dec -0.7 03:04:23 10° WSW 03:05:21 15° WSW 03:05:21 15° WSW visible
03 Dec -2.8 00:40:13 10° W 00:43:30 46° S 00:46:47 10° ESE visible
03 Dec -1.9 02:17:03 10° W 02:19:54 25° SSW 02:20:13 25° SSW visible
04 Dec -2.1 01:29:47 10° W 01:32:50 31° SSW 01:35:11 15° SE visible
04 Dec -0.4 03:08:03 10° SW 03:08:11 10° SW 03:08:11 10° SW visible
05 Dec -2.3 00:42:34 10° W 00:45:44 37° SSW 00:48:54 10° SE visible
05 Dec -1.0 02:19:57 10° WSW 02:21:56 15° SW 02:23:17 12° S visible
06 Dec -1.2 01:32:24 10° WSW 01:34:55 19° SSW 01:37:26 10° SSE visible
07 Dec -1.4 00:45:01 10° W 00:47:52 25° SSW 00:50:42 10° SSE visible
08 Dec -0.4 01:36:06 10° SW 01:36:49 11° SW 01:37:33 10° SSW visible
09 Dec -0.6 00:47:52 10° WSW 00:49:49 15° SW 00:51:46 10° S visible
